Search the data

BODC Cruise Metadata Report for FRV Scotia (748S) cruise 1104S

Introduction

This report collates information from the BODC cruise inventory and oceanographic databases. It presents

Cruise Inventory Information

Long name FRV Scotia (748S) cruise 1104S
Short name 1104S
Objectives and Narrative 1.To take part in an internationally co-ordinated demersal trawling survey of the North Sea.
2. To collect temperature and salinity profiles at each trawling station.
3. Carry out benthic sampling along the track of 40 trawl stations.
4. Collect samples of low nutrient seawater from statistical rectangle 45F1 (or an adjacent rectangle).
5. Carry out trawl and benthic survey work in the location of the proposed Buzzard platform.
Ship FRV Scotia
Departure Port Aberdeen, United Kingdom
Departure Date 2004-07-26
Arrival Port Aberdeen, United Kingdom
Arrival Date 2004-08-21
Principal Scientist(s) Kenneth A Coull (Fisheries Research Services Aberdeen Marine Laboratory)
Responsible Organisation University of Birmingham Department of Geology
Associated Project(s)
IHB Sea Areas Visited North Sea, North East Atlantic Ocean (limit 40W)
Marsden Squares Visited 181;1/181;3/216;1/216;2/216;3/216;4/217;1/252;1
Work Area Description The North Sea and west of Orkney and Shetland Islands
Work Area Bounding Polygon 50N,5W; 65N,5W; 65N,10E; 50N,10E; 50N,5W
Southern Limit 50N
Northern Limit 65N
Western Limit 5W
Eastern Limit 10E

Cruise Inventory Datasets

Physical oceanography  
CTD stations Quantity: number of stations = 96
Description:  
Biology and fisheries  
Demersal fish Quantity: number of hauls = 87
Description: One haul of 30 minutes' duration carried out at each location. Length frequency data collected for each species and age data for cod, haddock, whiting, saithe, Norway pout, sprat, herring and mackerel.  

Cruise Inventory Mooring/Buoy Operations

No information on datasets is currently available

Summary of BODC Data Holdings for the Cruise

National Oceanographic Database

Summary

# Series Instrument Description Parameters
1 CTD/STD cast Electrical conductivity of the water column
Salinity of the water column
Temperature of the water column
Vertical spatial coordinates
40 CTD/STD cast Chlorophyll pigment concentrations in water bodies
Electrical conductivity of the water column
Salinity of the water column
Temperature of the water column
Transmittance and attenuance of the water column
Vertical spatial coordinates
55 CTD/STD cast Chlorophyll pigment concentrations in water bodies
Electrical conductivity of the water column
Salinity of the water column
Temperature of the water column
Vertical spatial coordinates

Note: Parameter terms are taken from the BODC Parameter Discovery Vocabulary XML (SKOS)

Full List

BODC Reference Instrument Description Date/Time Location  
653639 CTD/STD cast 2004-07-28 16:27Z 57° 10' N, 0° 13' E Click for more
653640 CTD/STD cast 2004-07-29 03:52Z 57° 41' N, 2° 6' E Click for more
653652 CTD/STD cast 2004-07-29 06:29Z 57° 38' N, 2° 11' E Click for more
653664 CTD/STD cast 2004-07-29 09:51Z 57° 40' N, 1° 21' E Click for more
653676 CTD/STD cast 2004-07-29 11:23Z 57° 40' N, 1° 21' E Click for more
653688 CTD/STD cast 2004-07-29 13:48Z 57° 35' N, 0° 49' E Click for more
653707 CTD/STD cast 2004-07-29 15:24Z 57° 36' N, 0° 49' E Click for more
653719 CTD/STD cast 2004-07-30 03:41Z 56° 34' N, 1° 17' E Click for more
653720 CTD/STD cast 2004-07-30 08:46Z 56° 19' N, 1° 18' E Click for more
653732 CTD/STD cast 2004-07-30 13:40Z 55° 46' N, 0° 15' E Click for more
653744 CTD/STD cast 2004-07-30 16:30Z 55° 55' N, 0° 18' W Click for more
653756 CTD/STD cast 2004-07-31 01:35Z 55° 28' N, 0° 14' E Click for more
653768 CTD/STD cast 2004-07-31 09:10Z 55° 3' N, 0° 5' W Click for more
653781 CTD/STD cast 2004-07-31 11:20Z 54° 50' N, 0° 18' W Click for more
653793 CTD/STD cast 2004-07-31 13:46Z 54° 48' N, 0° 18' E Click for more
653800 CTD/STD cast 2004-07-31 16:50Z 54° 23' N, 0° 38' E Click for more
653812 CTD/STD cast 2004-08-01 03:21Z 54° 25' N, 1° 6' E Click for more
653824 CTD/STD cast 2004-08-01 08:33Z 54° 42' N, 1° 0' E Click for more
653836 CTD/STD cast 2004-08-01 13:02Z 55° 25' N, 1° 19' E Click for more
653848 CTD/STD cast 2004-08-01 14:59Z 55° 33' N, 1° 38' E Click for more
653861 CTD/STD cast 2004-08-01 17:20Z 55° 39' N, 2° 10' E Click for more
653873 CTD/STD cast 2004-08-02 01:15Z 56° 6' N, 2° 20' E Click for more
653885 CTD/STD cast 2004-08-02 10:10Z 56° 44' N, 2° 25' E Click for more
653897 CTD/STD cast 2004-08-02 13:45Z 56° 43' N, 3° 29' E Click for more
653904 CTD/STD cast 2004-08-02 16:42Z 56° 20' N, 3° 36' E Click for more
653916 CTD/STD cast 2004-08-03 03:32Z 55° 13' N, 3° 31' E Click for more
653928 CTD/STD cast 2004-08-03 08:59Z 55° 13' N, 2° 38' E Click for more
653941 CTD/STD cast 2004-08-03 12:06Z 54° 49' N, 2° 34' E Click for more
653953 CTD/STD cast 2004-08-03 15:29Z 54° 19' N, 2° 44' E Click for more
653965 CTD/STD cast 2004-08-03 18:52Z 54° 21' N, 3° 37' E Click for more
653977 CTD/STD cast 2004-08-04 04:26Z 55° 12' N, 4° 10' E Click for more
653989 CTD/STD cast 2004-08-04 08:56Z 55° 7' N, 5° 9' E Click for more
653990 CTD/STD cast 2004-08-04 14:26Z 54° 16' N, 4° 24' E Click for more
654004 CTD/STD cast 2004-08-04 19:04Z 54° 18' N, 5° 37' E Click for more
654016 CTD/STD cast 2004-08-05 05:12Z 54° 19' N, 7° 9' E Click for more
654028 CTD/STD cast 2004-08-05 08:43Z 54° 18' N, 6° 36' E Click for more
654041 CTD/STD cast 2004-08-05 14:14Z 55° 13' N, 6° 40' E Click for more
654053 CTD/STD cast 2004-08-05 16:23Z 55° 20' N, 7° 1' E Click for more
654065 CTD/STD cast 2004-08-07 13:56Z 56° 9' N, 7° 24' E Click for more
654077 CTD/STD cast 2004-08-07 17:03Z 56° 30' N, 6° 33' E Click for more
654089 CTD/STD cast 2004-08-07 19:38Z 56° 7' N, 5° 52' E Click for more
654090 CTD/STD cast 2004-08-08 03:46Z 56° 12' N, 4° 39' E Click for more
654108 CTD/STD cast 2004-08-08 08:03Z 56° 41' N, 4° 3' E Click for more
654121 CTD/STD cast 2004-08-08 11:15Z 57° 7' N, 4° 21' E Click for more
654133 CTD/STD cast 2004-08-08 12:42Z 57° 7' N, 4° 21' E Click for more
654145 CTD/STD cast 2004-08-08 15:44Z 57° 16' N, 5° 6' E Click for more
654157 CTD/STD cast 2004-08-08 17:08Z 57° 17' N, 5° 7' E Click for more
654169 CTD/STD cast 2004-08-09 05:39Z 58° 42' N, 2° 34' E Click for more
654170 CTD/STD cast 2004-08-09 09:08Z 58° 49' N, 3° 20' E Click for more
654182 CTD/STD cast 2004-08-09 14:11Z 59° 39' N, 3° 12' E Click for more
654194 CTD/STD cast 2004-08-09 17:35Z 59° 42' N, 2° 23' E Click for more
654201 CTD/STD cast 2004-08-10 03:32Z 60° 30' N, 2° 1' E Click for more
654213 CTD/STD cast 2004-08-10 10:04Z 60° 42' N, 1° 13' E Click for more
654225 CTD/STD cast 2004-08-10 12:51Z 60° 54' N, 0° 34' E Click for more
654237 CTD/STD cast 2004-08-10 17:04Z 60° 48' N, 0° 37' W Click for more
654249 CTD/STD cast 2004-08-11 04:19Z 60° 57' N, 1° 51' W Click for more
654250 CTD/STD cast 2004-08-11 13:57Z 59° 56' N, 2° 25' W Click for more
654262 CTD/STD cast 2004-08-11 16:58Z 60° 0' N, 1° 40' W Click for more
654274 CTD/STD cast 2004-08-11 18:32Z 59° 57' N, 1° 37' W Click for more
654286 CTD/STD cast 2004-08-12 03:49Z 60° 3' N, 0° 39' W Click for more
654298 CTD/STD cast 2004-08-12 09:42Z 59° 43' N, 0° 19' W Click for more
654305 CTD/STD cast 2004-08-12 12:31Z 59° 42' N, 0° 19' E Click for more
654317 CTD/STD cast 2004-08-12 16:30Z 59° 42' N, 1° 24' E Click for more
654329 CTD/STD cast 2004-08-13 03:04Z 58° 48' N, 1° 7' E Click for more
654330 CTD/STD cast 2004-08-13 08:55Z 58° 54' N, 0° 21' E Click for more
654342 CTD/STD cast 2004-08-13 13:11Z 58° 18' N, 0° 32' E Click for more
654354 CTD/STD cast 2004-08-13 16:09Z 58° 10' N, 0° 5' W Click for more
654366 CTD/STD cast 2004-08-15 08:16Z 57° 30' N, 1° 22' W Click for more
654378 CTD/STD cast 2004-08-15 10:15Z 57° 30' N, 1° 22' W Click for more
654391 CTD/STD cast 2004-08-15 13:26Z 57° 13' N, 0° 51' W Click for more
654409 CTD/STD cast 2004-08-15 14:53Z 57° 13' N, 0° 51' W Click for more
654410 CTD/STD cast 2004-08-16 00:00Z 57° 47' N, 0° 21' W Click for more
654422 CTD/STD cast 2004-08-16 07:47Z 57° 46' N, 0° 23' W Click for more
654434 CTD/STD cast 2004-08-16 11:11Z 58° 4' N, 1° 7' W Click for more
654446 CTD/STD cast 2004-08-16 16:20Z 58° 49' N, 0° 33' W Click for more
654458 CTD/STD cast 2004-08-16 18:31Z 59° 3' N, 0° 48' W Click for more
654471 CTD/STD cast 2004-08-17 03:21Z 59° 16' N, 1° 31' W Click for more
654483 CTD/STD cast 2004-08-17 10:10Z 58° 45' N, 1° 40' W Click for more
654495 CTD/STD cast 2004-08-17 14:33Z 59° 13' N, 2° 12' W Click for more
654502 CTD/STD cast 2004-08-17 17:15Z 58° 54' N, 2° 17' W Click for more
654514 CTD/STD cast 2004-08-18 02:13Z 58° 22' N, 2° 46' W Click for more
654526 CTD/STD cast 2004-08-18 08:49Z 58° 13' N, 3° 0' W Click for more
654538 CTD/STD cast 2004-08-18 11:32Z 57° 52' N, 3° 8' W Click for more
654551 CTD/STD cast 2004-08-18 13:54Z 57° 51' N, 2° 35' W Click for more
661455 CTD/STD cast 2004-07-26 09:49Z 57° 5' N, 1° 52' W Click for more
661467 CTD/STD cast 2004-07-26 12:43Z 57° 6' N, 1° 52' W Click for more
661479 CTD/STD cast 2004-07-26 16:02Z 56° 46' N, 2° 14' W Click for more
661480 CTD/STD cast 2004-07-26 19:25Z 56° 13' N, 2° 3' W Click for more
661492 CTD/STD cast 2004-07-27 02:14Z 56° 25' N, 1° 51' W Click for more
661511 CTD/STD cast 2004-07-27 10:02Z 55° 57' N, 1° 9' W Click for more
661523 CTD/STD cast 2004-07-27 13:48Z 56° 17' N, 0° 54' W Click for more
661535 CTD/STD cast 2004-07-27 16:43Z 56° 36' N, 1° 18' W Click for more
661547 CTD/STD cast 2004-07-28 02:26Z 56° 46' N, 0° 18' W Click for more
661559 CTD/STD cast 2004-07-28 08:39Z 56° 26' N, 0° 4' E Click for more
661560 CTD/STD cast 2004-07-28 11:47Z 56° 46' N, 0° 27' E Click for more
661572 CTD/STD cast 2004-07-28 14:49Z 57° 10' N, 0° 12' E Click for more

Project Database

No data currently held for this cruise in the BODC Project Database

References

Track Charts

Track Chart

Reports

No reports currently available